IRIDIUM 44

Last updated on Wed Nov 29 2017 00:19:02 GMT+0000 (Coordinated Universal Time)

1 25078U 97077B 17332.48948632 .00000111 00000-0 30122-4 0 9997 2 25078 86.3940 302.3534 0003919 87.7449 272.4198 14.38160144 47258
UTC large
Height (km)
Speed (km/s)
/
Latitude / Longitude
Inclination (degrees)
Orbital Period (minutes)
Azimuth
Elevation
Range (km)
Doppler Factor

Next 0 passes for location: London (51.5072 / 0.1276)

Sorry there are no passes over London.